Location: Antichan
(42.9728°N, 0.6667°E)
Time: 17:22:01
(UTC+00:00)

Meteor 1-4 Rocket - Pass Details

Date: 15 August 2020
Orbit: 449 x 502 km, 81.2° (Epoch: 17 September)

Event Time Altitude Azimuth Distance (km) Brightness Sun altitude
Rises 20:13:17 0° 347° (NNW) 2,468 6.9 -13.0°
Reaches altitude 10° 20:15:23 10° 344° (NNW) 1,588 5.9 -13.3°
Maximum altitude 20:18:48 64° 263° (W) 503 2.8 -13.8°
Enters shadow 20:21:59 12° 181° (S) 1,483 4.7 -14.3°
